Simultaneous Nadir Overpasses (SNOs) Predictions

Prediction of SNOs between NOAA-19 and TERRA Satellite Orbit:

Table of predicted SNOs for the next 14.0 days since TLE Epoch: 1/14/2023
Index Date (NOAA-19) Time (NOAA-19) Lat,Lon (NOAA-19) SZA (NOAA-19 ) Date (TERRA) Time (TERRA) Lat,Lon (TERRA) SZA (TERRA ) Distance(km) Time Diff (sec)
1 01/14/2023 23:17:15 -80.92, 46.02 76.51 01/14/2023 23:17:05 -80.92, 46.15 76.51 2.20 10
2 01/17/2023 03:07:55 80.92, 168.52 103.09 01/17/2023 03:07:57 80.93, 168.59 103.10 1.84 2
3 01/19/2023 06:58:42 -80.92, -69.19 77.37 01/19/2023 06:58:49 -80.92, -69.29 77.37 1.65 7
4 01/21/2023 10:49:23 80.92, 53.12 102.16 01/21/2023 10:49:40 80.94, 53.14 102.18 1.51 17
5 01/23/2023 14:40:09 -80.92, 175.32 78.36 01/23/2023 14:40:31 -80.93, 175.33 78.35 0.79 22
6 01/23/2023 15:31:06 80.92, -17.13 101.66 01/23/2023 15:29:54 80.92, -17.10 101.64 0.59 72
7 01/25/2023 18:30:51 80.92, -62.51 101.10 01/25/2023 18:31:22 80.91, -62.62 101.09 2.27 31
8 01/25/2023 19:21:51 -80.92, 105.18 78.88 01/25/2023 19:20:44 -80.93, 105.30 78.88 2.41 67
9 01/27/2023 22:21:35 -80.92, 59.93 79.45 01/27/2023 22:22:11 -80.94, 60.00 79.42 2.14 36



Historial Predications of SNOs between NOAA-19 and TERRA
